This demonstration page uses our WeatherBlox Daily Observations layout. Learn more.

Left ArrowRight Arrow

39.01783, -85.05884

Hourly Observations for April 12, 2019

Temp ( °F °C ) Dew Point ( °F °C ) Humidity (%) Winds ( mph kmh ) Pressure ( in mb ) Visibility ( mi km ) Precip ( " mm )
12:52 am 00:52 Cloudy 74 23.3 48 8.9 40 40 S 20 31 29.70 1006 10 16 N/A
1:52 am 01:52 Cloudy 73 22.8 48 8.9 41 41 S 24 39 29.69 1005 10 16 N/A
2:52 am 02:52 Cloudy 71 21.7 49 9.4 46 46 SSE 21 33 29.67 1005 10 16 N/A
3:52 am 03:52 Cloudy 71 21.7 49 9.4 46 46 SSE 24 39 29.67 1005 10 16 N/A
4:52 am 04:52 Cloudy 69 20.6 50 10 51 51 S 21 33 29.66 1005 10 16 N/A
5:52 am 05:52 Cloudy 69 20.6 51 10.6 53 53 S 21 33 29.67 1005 10 16 N/A
6:52 am 06:52 Cloudy with Light Rain 68 20 55 12.8 63 63 S 25 41 29.67 1005 10 16 N/A
7:44 am 07:44 Mostly Cloudy with Light Rain 62 16.7 54 12.2 75 75 WNW 38 61 29.77 1008 3 5 N/A
7:49 am 07:49 Mostly Cloudy with Light Rain 59 15 54 12 82 82 WNW 32 52 29.80 1009 3 4 N/A
7:52 am 07:52 Mostly Cloudy with Heavy Thunderstorms 58 14.4 54 12.2 87 87 W 29 46 29.80 1009 2 3 0.01 0.25
7:54 am 07:54 Cloudy with Heavy Thunderstorms 57 13.9 53 11.7 87 87 W 21 33 29.82 1010 2 3 0.02 0.51
8:05 am 08:05 Cloudy with Nearby Thunderstorms 57 13.9 54 12.2 90 90 W 12 19 29.82 1010 2 3 0.06 1.52
8:19 am 08:19 Mostly Cloudy 57 13.9 53 11.7 87 87 W 8 13 29.81 1009 10 16 0.06 1.52
8:52 am 08:52 Mostly Cloudy 60 15.6 53 11.7 78 78 SW 15 24 29.80 1009 10 16 0.06 1.52
9:52 am 09:52 Cloudy with Light Rain 60 15.6 53 11.7 78 78 SW 16 26 29.80 1009 10 16 N/A
10:52 am 10:52 Cloudy 60 15.6 52 11.1 75 75 SW 18 30 29.83 1010 10 16 N/A
11:08 am 11:08 Mostly Cloudy 60 15.6 52 11.1 75 75 SW 15 24 29.84 1011 10 16 N/A
11:52 am 11:52 Mostly Cloudy 60 15.6 50 10 70 70 SW 17 28 29.84 1010 10 16 N/A
12:52 pm 12:52 Cloudy 62 16.7 47 8.3 58 58 WSW 17 28 29.87 1012 10 16 N/A
1:52 pm 13:52 Cloudy 62 16.7 46 7.8 56 56 SW 13 20 29.87 1011 10 16 N/A
2:52 pm 14:52 Cloudy 63 17.2 43 6.1 48 48 SW 17 28 29.87 1012 10 16 N/A
3:52 pm 15:52 Mostly Cloudy 66 18.9 43 6.1 43 43 WSW 15 24 29.90 1012 10 16 N/A
4:52 pm 16:52 Mostly Cloudy 66 18.9 37 2.8 34 34 WSW 18 30 29.89 1012 10 16 N/A
5:52 pm 17:52 Mostly Cloudy 67 19.4 40 4.4 37 37 SW 15 24 29.91 1013 10 16 N/A
6:52 pm 18:52 Cloudy 65 18.3 38 3.3 37 37 WSW 15 24 29.93 1014 10 16 N/A
7:52 pm 19:52 Mostly Cloudy 63 17.2 30 -1.1 29 29 WSW 10 17 29.95 1014 10 16 N/A
8:52 pm 20:52 Mostly Cloudy 61 16.1 32 undefined 34 34 SSW 5 7 29.96 1015 10 16 N/A
9:52 pm 21:52 Cloudy 59 15 33 0.6 38 38 WSW 5 7 29.99 1016 10 16 N/A
10:52 pm 22:52 Mostly Cloudy 54 12.2 37 2.8 53 53 S 6 9 30.02 1017 10 16 N/A
11:52 pm 23:52 Mostly Cloudy 52 11.1 37 2.8 57 57 S 7 11 30.03 1017 10 16 N/A

Powered by AerisWeather